This demonstration page uses our WeatherBlox Daily Observations layout. Learn more.

Left ArrowRight Arrow

41.55636, -103.73856

Hourly Observations for December 2, 2021

Temp ( °F °C ) Dew Point ( °F °C ) Humidity (%) Winds ( mph kmh ) Pressure ( in mb ) Visibility ( mi km ) Precip ( " mm )
12:58 am 00:58 Clear 49 9.2 23 -5 37 37 W 12 19 30.04 1017 10 16 N/A
1:58 am 01:58 Clear 47 8.5 24 -4.5 40 40 W 14 22 30.03 1017 10 16 N/A
2:58 am 02:58 Clear 48 8.8 24 -4.6 39 39 W 13 20 30.03 1017 10 16 N/A
3:58 am 03:58 Clear 45 7.1 24 -4.6 43 43 SW 10 17 30.04 1017 10 16 N/A
4:58 am 04:58 Clear 45 7.2 24 -4.4 44 44 W 10 17 30.04 1017 10 16 N/A
5:58 am 05:58 Clear 46 7.9 25 -4.1 43 43 SSW 10 17 30.06 1018 10 16 N/A
6:58 am 06:58 Clear 45 7.4 24 -4.4 43 43 SSW 12 19 30.07 1018 10 16 N/A
7:58 am 07:58 Sunny 45 7.4 25 -3.8 45 45 WSW 8 13 30.07 1018 10 16 N/A
8:58 am 08:58 Sunny 58 14.4 26 -3.3 29 29 W 8 13 30.06 1018 10 16 N/A
9:58 am 09:58 Sunny 66 18.7 25 -4.1 21 21 WSW 15 24 30.02 1017 10 16 N/A
10:58 am 10:58 Sunny 68 20.1 23 -5 18 18 W 20 31 30.00 1016 10 16 N/A
11:58 am 11:58 Sunny 69 20.3 21 -5.9 17 17 WSW 13 20 29.95 1014 10 16 N/A
12:58 pm 12:58 Sunny 74 23.3 20 -6.4 13 13 W 17 28 29.89 1012 10 16 N/A
1:58 pm 13:58 Sunny 75 24.1 20 -6.6 12 12 W 20 31 29.87 1012 10 16 N/A
2:58 pm 14:58 Sunny 74 23.6 20 -6.5 13 13 WNW 15 24 29.86 1011 10 16 N/A
3:58 pm 15:58 Sunny 71 21.6 20 -6.8 14 14 WNW 12 19 29.88 1012 10 16 N/A
4:58 pm 16:58 Clear 56 13.6 22 -5.8 26 26 SSW 7 11 29.93 1014 10 16 N/A
5:58 pm 17:58 Clear 54 12.3 22 -5.4 29 29 W 13 20 29.96 1015 10 16 N/A
6:58 pm 18:58 Clear 61 15.9 23 -5.2 23 23 W 15 24 29.93 1014 10 16 N/A
7:58 pm 19:58 Clear 53 11.8 22 -5.3 30 30 W 14 22 29.95 1014 10 16 N/A
8:58 pm 20:58 Clear 54 12.2 22 -5.7 28 28 W 13 20 29.94 1014 10 16 N/A
9:58 pm 21:58 Clear 54 12.3 23 -5.2 29 29 W 12 19 29.93 1014 10 16 N/A
10:58 pm 22:58 Clear 44 6.9 23 -4.8 43 43 W 12 19 29.95 1014 10 16 N/A
11:58 pm 23:58 Clear 44 6.8 29 -1.5 56 56 NE 13 20 30.01 1016 10 16 N/A

Powered by AerisWeather